| time (UTC) | temp F | wind direction | speed MPH | gust MPH | rain 1hr in | rain 24hr in | rain mn in | humidity % | barometer mb |
| 20260831115004 | 68 | 147 | 0.0 | 2.0 | 0.00 | 0.01 | 0.00 | 94 | 1007.9 |
| 20260831114004 | 68 | 148 | 0.0 | 2.0 | 0.00 | 0.01 | 0.00 | 94 | 1007.6 |
| 20260831113011 | 68 | 146 | 0.0 | 3.0 | 0.00 | 0.01 | 0.00 | 94 | 1007.5 |
| 20260831112813 | 68 | 145 | 1.0 | 2.0 | 0.00 | 0.01 | 0.00 | 93 | 1007.5 |
| 20260831112004 | 68 | 120 | 1.0 | 3.0 | 0.00 | 0.01 | 0.00 | 93 | 1007.7 |
| 20260831111310 | 68 | 139 | 0.0 | 2.0 | 0.00 | 0.01 | 0.00 | 93 | 1007.7 |
| 20260831111004 | 68 | 121 | 0.0 | 7.0 | 0.00 | 0.01 | 0.00 | 93 | 1007.8 |
| 20260831110004 | 68 | 137 | 0.0 | 3.0 | 0.00 | 0.01 | 0.00 | 93 | 1007.7 |
| 20260831105809 | 68 | 138 | 0.0 | 2.0 | 0.00 | 0.01 | 0.00 | 93 | 1007.7 |
| 20260831104311 | 69 | 144 | 0.0 | 2.0 | 0.00 | 0.01 | 0.00 | 92 | 1007.8 |
| 20260831103004 | 69 | 136 | 0.0 | 6.0 | 0.00 | 0.01 | 0.00 | 91 | 1007.9 |
| 20260831102809 | 69 | 131 | 1.0 | 2.0 | 0.00 | 0.01 | 0.00 | 91 | 1007.9 |
| 20260831102004 | 70 | 114 | 1.0 | 3.0 | 0.00 | 0.01 | 0.00 | 91 | 1007.9 |
| 20260831101310 | 70 | 112 | 2.0 | 3.0 | 0.00 | 0.01 | 0.00 | 91 | 1007.9 |
| 20260831101004 | 70 | 153 | 0.0 | 3.0 | 0.00 | 0.01 | 0.00 | 91 | 1007.9 |
| 20260831100004 | 70 | 134 | 1.0 | 8.0 | 0.00 | 0.01 | 0.00 | 91 | 1008.0 |
| 20260831095810 | 69 | 139 | 0.0 | 2.0 | 0.00 | 0.01 | 0.00 | 91 | 1008.0 |
| 20260831095004 | 70 | 129 | 1.0 | 6.0 | 0.00 | 0.01 | 0.00 | 91 | 1008.1 |
| 20260831094309 | 70 | 117 | 0.0 | 2.0 | 0.00 | 0.01 | 0.00 | 91 | 1008.0 |
| 20260831093005 | 70 | 155 | 1.0 | 5.0 | 0.00 | 0.01 | 0.00 | 91 | 1008.1 |
| 20260831092810 | 70 | 135 | 1.0 | 3.0 | 0.00 | 0.01 | 0.00 | 91 | 1008.1 |
| 20260831092004 | 70 | 123 | 1.0 | 7.0 | 0.00 | 0.01 | 0.00 | 91 | 1008.4 |
| 20260831091310 | 70 | 147 | 0.0 | 2.0 | 0.00 | 0.01 | 0.00 | 92 | 1008.4 |
| 20260831090003 | 69 | 117 | 0.0 | 3.0 | 0.00 | 0.01 | 0.00 | 92 | 1008.2 |
| 20260831085809 | 69 | 116 | 0.0 | 0.0 | 0.00 | 0.01 | 0.00 | 93 | 1008.2 |
| 20260831085004 | 69 | 125 | 1.0 | 8.0 | 0.00 | 0.01 | 0.00 | 93 | 1008.2 |
| 20260831084314 | 69 | 124 | 1.0 | 2.0 | 0.00 | 0.01 | 0.00 | 93 | 1008.2 |
| 20260831084004 | 69 | 122 | 2.0 | 5.0 | 0.00 | 0.01 | 0.00 | 93 | 1008.3 |
| 20260831083007 | 69 | 86 | 1.0 | 5.0 | 0.00 | 0.01 | 0.00 | 93 | 1008.1 |
| 20260831082811 | 69 | 133 | 0.0 | 2.0 | 0.00 | 0.01 | 0.00 | 93 | 1008.1 |
| 20260831081309 | 69 | 115 | 1.0 | 3.0 | 0.00 | 0.01 | 0.00 | 93 | 1008.2 |
| 20260831081004 | 69 | 123 | 1.0 | 7.0 | 0.00 | 0.01 | 0.00 | 93 | 1008.2 |
| 20260831080004 | 69 | 106 | 1.0 | 7.0 | 0.00 | 0.01 | 0.00 | 94 | 1008.3 |
| 20260831075810 | 69 | 102 | 0.0 | 5.0 | 0.00 | 0.01 | 0.00 | 94 | 1008.3 |
| 20260831075004 | 69 | 118 | 1.0 | 5.0 | 0.00 | 0.01 | 0.00 | 93 | 1008.5 |
| 20260831074310 | 69 | 103 | 1.0 | 5.0 | 0.00 | 0.01 | 0.00 | 93 | 1008.5 |
| 20260831074003 | 69 | 131 | 1.0 | 2.0 | 0.00 | 0.01 | 0.00 | 93 | 1008.5 |
| 20260831073003 | 68 | 113 | 0.0 | 3.0 | 0.00 | 0.01 | 0.00 | 93 | 1008.6 |
| 20260831072808 | 68 | 112 | 0.0 | 0.0 | 0.00 | 0.01 | 0.00 | 93 | 1008.7 |
| 20260831071309 | 68 | 138 | 0.0 | 0.0 | 0.00 | 0.01 | 0.00 | 93 | 1008.7 |
| 20260831071004 | 69 | 138 | 0.0 | 2.0 | 0.00 | 0.01 | 0.00 | 93 | 1008.8 |
| 20260831070003 | 69 | 140 | 0.0 | 3.0 | 0.00 | 0.01 | 0.00 | 93 | 1009.0 |
| 20260831065810 | 69 | 143 | 0.0 | 1.0 | 0.00 | 0.01 | 0.00 | 93 | 1009.1 |
| 20260831065004 | 69 | 108 | 0.0 | 5.0 | 0.00 | 0.01 | 0.00 | 93 | 1009.1 |
| 20260831064310 | 69 | 129 | 0.0 | 3.0 | 0.00 | 0.01 | 0.00 | 93 | 1009.2 |
| 20260831064004 | 69 | 126 | 1.0 | 3.0 | 0.00 | 0.01 | 0.00 | 93 | 1009.3 |
| 20260831063004 | 69 | 138 | 0.0 | 3.0 | 0.00 | 0.01 | 0.00 | 93 | 1009.4 |
| 20260831062808 | 69 | 138 | 0.0 | 1.0 | 0.00 | 0.01 | 0.00 | 93 | 1009.4 |
| 20260831062004 | 69 | 171 | 1.0 | 5.0 | 0.00 | 0.01 | 0.00 | 93 | 1009.4 |
| 20260831061319 | 69 | 153 | 1.0 | 3.0 | 0.00 | 0.01 | 0.00 | 93 | 1009.4 |
| 20260831061004 | 69 | 152 | 1.0 | 5.0 | 0.00 | 0.01 | 0.00 | 93 | 1009.4 |
| 20260831060011 | 69 | 157 | 1.0 | 5.0 | 0.00 | 0.01 | 0.00 | 93 | 1009.5 |
| 20260831055809 | 69 | 103 | 1.0 | 5.0 | 0.00 | 0.01 | 0.00 | 93 | 1009.6 |
| 20260831055004 | 68 | 146 | 0.0 | 7.0 | 0.00 | 0.01 | 0.00 | 93 | 1009.7 |
| 20260831054313 | 68 | 130 | 1.0 | 3.0 | 0.00 | 0.01 | 0.00 | 93 | 1010.0 |
| 20260831054003 | 68 | 136 | 1.0 | 3.0 | 0.00 | 0.01 | 0.00 | 93 | 1010.0 |
| 20260831053011 | 68 | 139 | 0.0 | 6.0 | 0.00 | 0.01 | 0.00 | 93 | 1010.1 |
| 20260831052810 | 68 | 139 | 0.0 | 0.0 | 0.00 | 0.01 | 0.00 | 93 | 1010.1 |
| 20260831052007 | 68 | 129 | 1.0 | 6.0 | 0.00 | 0.01 | 0.00 | 93 | 1010.1 |
| 20260831051310 | 69 | 119 | 1.0 | 3.0 | 0.00 | 0.01 | 0.00 | 93 | 1010.1 |
| 20260831050005 | 68 | 135 | 1.0 | 6.0 | 0.00 | 0.01 | 0.00 | 93 | 1010.3 |
| 20260831045809 | 68 | 149 | 0.0 | 2.0 | 0.00 | 0.01 | 0.01 | 93 | 1010.4 |
| 20260831045007 | 68 | 123 | 0.0 | 5.0 | 0.00 | 0.01 | 0.01 | 93 | 1010.3 |
| 20260831044309 | 68 | 118 | 1.0 | 3.0 | 0.00 | 0.01 | 0.01 | 93 | 1010.3 |
| 20260831044010 | 68 | 135 | 1.0 | 5.0 | 0.00 | 0.01 | 0.01 | 93 | 1010.2 |
| 20260831043006 | 68 | 89 | 1.0 | 6.0 | 0.00 | 0.01 | 0.01 | 93 | 1010.3 |
| 20260831042810 | 68 | 123 | 1.0 | 1.0 | 0.00 | 0.01 | 0.01 | 93 | 1010.2 |
| 20260831042004 | 68 | 107 | 1.0 | 5.0 | 0.00 | 0.01 | 0.01 | 93 | 1010.2 |
| 20260831041310 | 68 | 108 | 1.0 | 3.0 | 0.00 | 0.01 | 0.01 | 93 | 1010.1 |
| 20260831041004 | 68 | 108 | 1.0 | 7.0 | 0.00 | 0.01 | 0.01 | 93 | 1010.1 |
| 20260831035808 | 68 | 123 | 1.0 | 7.0 | 0.00 | 0.01 | 0.01 | 93 | 1010.2 |
| 20260831035004 | 68 | 129 | 1.0 | 7.0 | 0.00 | 0.01 | 0.01 | 93 | 1010.5 |
| 20260831034309 | 68 | 114 | 0.0 | 2.0 | 0.00 | 0.01 | 0.01 | 93 | 1010.4 |
| 20260831034003 | 68 | 103 | 1.0 | 7.0 | 0.00 | 0.01 | 0.01 | 93 | 1010.3 |
| 20260831032808 | 68 | 163 | 0.0 | 2.0 | 0.00 | 0.01 | 0.01 | 92 | 1010.4 |
| 20260831032003 | 68 | 126 | 2.0 | 7.0 | 0.00 | 0.01 | 0.01 | 92 | 1010.5 |
| 20260831031309 | 68 | 131 | 1.0 | 3.0 | 0.00 | 0.01 | 0.01 | 92 | 1010.6 |
| 20260831025809 | 69 | 126 | 1.0 | 2.0 | 0.00 | 0.01 | 0.01 | 90 | 1010.8 |
| 20260831025003 | 69 | 127 | 2.0 | 7.0 | 0.00 | 0.01 | 0.01 | 90 | 1010.8 |
| 20260831024309 | 69 | 113 | 2.0 | 7.0 | 0.00 | 0.01 | 0.01 | 90 | 1010.8 |
| 20260831024003 | 69 | 137 | 1.0 | 8.0 | 0.00 | 0.01 | 0.01 | 90 | 1010.8 |
| 20260831023005 | 69 | 119 | 1.0 | 5.0 | 0.00 | 0.01 | 0.01 | 90 | 1010.8 |
| 20260831022809 | 69 | 115 | 1.0 | 3.0 | 0.00 | 0.01 | 0.01 | 90 | 1010.8 |
| 20260831021309 | 69 | 112 | 2.0 | 6.0 | 0.00 | 0.01 | 0.01 | 90 | 1010.8 |
| 20260831021004 | 69 | 120 | 1.0 | 5.0 | 0.00 | 0.01 | 0.01 | 90 | 1010.9 |
| 20260831020004 | 69 | 107 | 2.0 | 6.0 | 0.00 | 0.01 | 0.01 | 90 | 1010.8 |
| 20260831015809 | 69 | 124 | 1.0 | 3.0 | 0.00 | 0.01 | 0.01 | 90 | 1010.8 |
| 20260831015003 | 69 | 148 | 2.0 | 7.0 | 0.00 | 0.01 | 0.01 | 90 | 1010.6 |
| 20260831014315 | 69 | 101 | 1.0 | 2.0 | 0.00 | 0.01 | 0.01 | 90 | 1010.7 |
| 20260831013004 | 69 | 133 | 2.0 | 9.0 | 0.00 | 0.01 | 0.01 | 90 | 1010.6 |
| 20260831012810 | 69 | 121 | 1.0 | 2.0 | 0.00 | 0.01 | 0.01 | 90 | 1010.6 |
| 20260831012003 | 69 | 110 | 1.0 | 8.0 | 0.00 | 0.01 | 0.01 | 90 | 1010.3 |
| 20260831011313 | 69 | 114 | 2.0 | 3.0 | 0.00 | 0.01 | 0.01 | 90 | 1010.2 |
| 20260831011007 | 69 | 107 | 2.0 | 8.0 | 0.00 | 0.01 | 0.01 | 90 | 1010.4 |
| 20260831010004 | 69 | 105 | 2.0 | 6.0 | 0.00 | 0.01 | 0.01 | 90 | 1010.2 |
| 20260831005809 | 69 | 112 | 1.0 | 5.0 | 0.00 | 0.01 | 0.01 | 90 | 1010.1 |
| 20260831005003 | 69 | 126 | 2.0 | 6.0 | 0.00 | 0.01 | 0.01 | 90 | 1010.4 |
| 20260831004308 | 70 | 123 | 1.0 | 2.0 | 0.00 | 0.01 | 0.01 | 89 | 1010.6 |
| 20260831004003 | 70 | 85 | 1.0 | 5.0 | 0.00 | 0.01 | 0.01 | 89 | 1010.6 |
| 20260831003005 | 70 | 131 | 2.0 | 7.0 | 0.00 | 0.01 | 0.01 | 89 | 1010.6 |
| 20260831002808 | 70 | 89 | 2.0 | 7.0 | 0.00 | 0.01 | 0.01 | 89 | 1010.6 |
| 20260831001309 | 70 | 126 | 1.0 | 2.0 | 0.00 | 0.01 | 0.01 | 89 | 1011.0 |
| 20260831001003 | 70 | 90 | 1.0 | 5.0 | 0.00 | 0.01 | 0.01 | 88 | 1011.0 |
| 20260831000003 | 70 | 91 | 1.0 | 3.0 | 0.00 | 0.01 | 0.01 | 88 | 1011.0 |
| 20260830235808 | 70 | 85 | 0.0 | 2.0 | 0.00 | 0.01 | 0.01 | 88 | 1011.1 |
| 20260830234308 | 71 | 128 | 0.0 | 2.0 | 0.00 | 0.02 | 0.01 | 88 | 1010.9 |
| 20260830234004 | 71 | 105 | 2.0 | 8.0 | 0.00 | 0.02 | 0.01 | 87 | 1010.7 |
| 20260830233006 | 71 | 90 | 1.0 | 3.0 | 0.00 | 0.02 | 0.01 | 87 | 1010.5 |
| 20260830232810 | 71 | 91 | 0.0 | 3.0 | 0.00 | 0.02 | 0.01 | 88 | 1010.6 |
| 20260830232005 | 70 | 69 | 1.0 | 5.0 | 0.00 | 0.02 | 0.01 | 88 | 1010.6 |
| 20260830231316 | 70 | 92 | 1.0 | 5.0 | 0.00 | 0.02 | 0.01 | 88 | 1010.7 |
| 20260830231006 | 70 | 82 | 1.0 | 3.0 | 0.00 | 0.02 | 0.01 | 88 | 1010.8 |
| 20260830230006 | 70 | 87 | 0.0 | 2.0 | 0.00 | 0.02 | 0.01 | 88 | 1010.9 |
| 20260830225821 | 70 | 87 | 0.0 | 1.0 | 0.00 | 0.02 | 0.01 | 88 | 1010.8 |
| 20260830225005 | 70 | 87 | 0.0 | 2.0 | 0.00 | 0.02 | 0.01 | 88 | 1010.8 |
| 20260830224316 | 71 | 87 | 0.0 | 0.0 | 0.00 | 0.02 | 0.01 | 87 | 1010.7 |
| 20260830224005 | 71 | 87 | 1.0 | 3.0 | 0.00 | 0.02 | 0.01 | 87 | 1010.4 |
| 20260830222810 | 71 | 99 | 1.0 | 2.0 | 0.00 | 0.02 | 0.01 | 86 | 1010.3 |
| 20260830222005 | 71 | 96 | 0.0 | 3.0 | 0.00 | 0.02 | 0.01 | 87 | 1010.1 |
| 20260830221321 | 71 | 113 | 0.0 | 2.0 | 0.00 | 0.02 | 0.01 | 86 | 1010.4 |
| 20260830220005 | 72 | 88 | 1.0 | 3.0 | 0.00 | 0.02 | 0.01 | 85 | 1010.6 |
| 20260830215811 | 72 | 87 | 1.0 | 3.0 | 0.00 | 0.02 | 0.01 | 85 | 1010.8 |
| 20260830215006 | 72 | 106 | 0.0 | 3.0 | 0.00 | 0.02 | 0.01 | 84 | 1010.6 |
| 20260830214311 | 71 | 98 | 0.0 | 0.0 | 0.00 | 0.03 | 0.01 | 86 | 1010.8 |
| 20260830214006 | 71 | 94 | 1.0 | 3.0 | 0.00 | 0.03 | 0.01 | 86 | 1010.7 |
| 20260830213005 | 72 | 106 | 1.0 | 5.0 | 0.00 | 0.03 | 0.01 | 84 | 1010.6 |
| 20260830212811 | 72 | 133 | 0.0 | 2.0 | 0.00 | 0.03 | 0.01 | 84 | 1010.7 |
| 20260830212005 | 72 | 79 | 1.0 | 5.0 | 0.00 | 0.03 | 0.01 | 83 | 1010.8 |
| 20260830211310 | 73 | 111 | 1.0 | 2.0 | 0.00 | 0.04 | 0.01 | 81 | 1010.7 |
| 20260830205810 | 72 | 117 | 2.0 | 3.0 | 0.00 | 0.06 | 0.01 | 83 | 1010.9 |
| 20260830205005 | 72 | 123 | 1.0 | 7.0 | 0.00 | 0.06 | 0.01 | 83 | 1011.0 |
| 20260830204408 | 73 | 114 | 1.0 | 2.0 | 0.00 | 0.06 | 0.01 | 82 | 1011.0 |
| 20260830204006 | 73 | 109 | 1.0 | 8.0 | 0.00 | 0.06 | 0.01 | 81 | 1011.0 |
| 20260830203005 | 74 | 156 | 2.0 | 7.0 | 0.00 | 0.06 | 0.01 | 79 | 1010.9 |
| 20260830202820 | 74 | 138 | 2.0 | 3.0 | 0.00 | 0.06 | 0.01 | 79 | 1010.9 |
| 20260830201309 | 74 | 136 | 2.0 | 5.0 | 0.00 | 0.06 | 0.01 | 82 | 1011.0 |
| 20260830201005 | 73 | 122 | 1.0 | 5.0 | 0.00 | 0.06 | 0.01 | 83 | 1010.9 |
| 20260830195811 | 73 | 132 | 1.0 | 2.0 | 0.00 | 0.06 | 0.01 | 80 | 1011.2 |
| 20260830195005 | 74 | 130 | 1.0 | 7.0 | 0.00 | 0.06 | 0.01 | 81 | 1011.2 |
| 20260830194311 | 73 | 107 | 2.0 | 3.0 | 0.00 | 0.06 | 0.01 | 84 | 1011.1 |
| 20260830193005 | 72 | 118 | 0.0 | 5.0 | 0.00 | 0.06 | 0.01 | 86 | 1011.2 |
| 20260830192811 | 72 | 115 | 0.0 | 2.0 | 0.00 | 0.06 | 0.01 | 86 | 1011.2 |
| 20260830192005 | 72 | 123 | 2.0 | 9.0 | 0.00 | 0.06 | 0.01 | 87 | 1011.2 |
| 20260830191309 | 72 | 55 | 1.0 | 2.0 | 0.00 | 0.06 | 0.01 | 86 | 1011.2 |
| 20260830191005 | 72 | 169 | 1.0 | 6.0 | 0.00 | 0.06 | 0.01 | 87 | 1011.2 |
| 20260830190005 | 71 | 117 | 1.0 | 8.0 | 0.00 | 0.06 | 0.01 | 85 | 1011.1 |
| 20260830185810 | 71 | 115 | 2.0 | 8.0 | 0.00 | 0.06 | 0.01 | 87 | 1011.1 |
| 20260830185005 | 71 | 86 | 2.0 | 8.0 | 0.00 | 0.06 | 0.01 | 86 | 1011.1 |
| 20260830184311 | 71 | 79 | 2.0 | 5.0 | 0.00 | 0.06 | 0.01 | 86 | 1011.1 |
| 20260830184005 | 71 | 117 | 1.0 | 12.0 | 0.00 | 0.06 | 0.01 | 85 | 1011.3 |
| 20260830183005 | 72 | 105 | 3.0 | 8.0 | 0.00 | 0.06 | 0.01 | 87 | 1011.3 |
| 20260830182813 | 71 | 104 | 3.0 | 6.0 | 0.00 | 0.06 | 0.01 | 88 | 1011.3 |
| 20260830181311 | 71 | 106 | 1.0 | 3.0 | 0.00 | 0.06 | 0.01 | 87 | 1011.5 |
| 20260830181005 | 71 | 86 | 2.0 | 8.0 | 0.00 | 0.06 | 0.01 | 87 | 1011.5 |
| 20260830175810 | 71 | 104 | 2.0 | 2.0 | 0.00 | 0.06 | 0.01 | 85 | 1011.6 |
| 20260830175005 | 71 | 120 | 2.0 | 7.0 | 0.00 | 0.06 | 0.01 | 85 | 1011.6 |
| 20260830174311 | 71 | 71 | 0.0 | 2.0 | 0.00 | 0.06 | 0.01 | 86 | 1011.7 |
| 20260830174005 | 70 | 139 | 2.0 | 8.0 | 0.00 | 0.06 | 0.01 | 87 | 1011.7 |
| 20260830173005 | 69 | 99 | 2.0 | 9.0 | 0.00 | 0.06 | 0.01 | 89 | 1011.6 |
| 20260830172813 | 69 | 84 | 1.0 | 3.0 | 0.00 | 0.06 | 0.01 | 88 | 1011.6 |
| 20260830172005 | 69 | 88 | 1.0 | 8.0 | 0.00 | 0.06 | 0.01 | 90 | 1011.6 |
| 20260830171311 | 69 | 99 | 1.0 | 2.0 | 0.00 | 0.06 | 0.01 | 89 | 1011.8 |
| 20260830171005 | 69 | 96 | 2.0 | 9.0 | 0.00 | 0.06 | 0.01 | 91 | 1011.8 |
| 20260830170005 | 69 | 117 | 1.0 | 5.0 | 0.00 | 0.06 | 0.01 | 92 | 1011.8 |
| 20260830165829 | 69 | 122 | 0.0 | 2.0 | 0.00 | 0.06 | 0.01 | 92 | 1011.8 |
| 20260830165008 | 68 | 112 | 1.0 | 5.0 | 0.00 | 0.06 | 0.01 | 92 | 1011.9 |
| 20260830164320 | 67 | 48 | 1.0 | 3.0 | 0.00 | 0.06 | 0.01 | 93 | 1012.0 |
| 20260830164005 | 67 | 94 | 1.0 | 5.0 | 0.00 | 0.06 | 0.01 | 93 | 1011.9 |
| 20260830162811 | 68 | 62 | 1.0 | 2.0 | 0.00 | 0.06 | 0.01 | 92 | 1012.1 |
| 20260830162005 | 67 | 85 | 0.0 | 6.0 | 0.00 | 0.07 | 0.01 | 93 | 1012.5 |
| 20260830161312 | 67 | 86 | 1.0 | 3.0 | 0.00 | 0.07 | 0.01 | 93 | 1012.3 |
| 20260830161005 | 67 | 108 | 0.0 | 6.0 | 0.00 | 0.07 | 0.01 | 93 | 1012.4 |
| 20260830155810 | 66 | 108 | 0.0 | 2.0 | 0.00 | 0.07 | 0.01 | 94 | 1012.4 |
| 20260830155008 | 66 | 94 | 1.0 | 3.0 | 0.00 | 0.07 | 0.01 | 94 | 1012.2 |
| 20260830154320 | 66 | 82 | 0.0 | 2.0 | 0.00 | 0.07 | 0.01 | 93 | 1011.8 |
| 20260830154008 | 66 | 82 | 0.0 | 10.0 | 0.00 | 0.07 | 0.01 | 93 | 1011.7 |
| 20260830153005 | 66 | 83 | 3.0 | 9.0 | 0.00 | 0.07 | 0.01 | 93 | 1010.8 |
| 20260830152809 | 66 | 73 | 2.0 | 8.0 | 0.00 | 0.07 | 0.01 | 93 | 1010.7 |
| 20260830152005 | 66 | 104 | 1.0 | 8.0 | 0.00 | 0.07 | 0.01 | 93 | 1011.7 |
| 20260830151311 | 66 | 97 | 0.0 | 1.0 | 0.00 | 0.07 | 0.01 | 93 | 1011.8 |
| 20260830151008 | 66 | 81 | 1.0 | 5.0 | 0.00 | 0.07 | 0.01 | 93 | 1011.8 |
| 20260830150008 | 66 | 123 | 1.0 | 5.0 | 0.00 | 0.07 | 0.01 | 94 | 1011.8 |
| 20260830145810 | 66 | 89 | 0.0 | 2.0 | 0.00 | 0.07 | 0.01 | 94 | 1011.7 |
| 20260830145005 | 66 | 94 | 1.0 | 2.0 | 0.00 | 0.07 | 0.01 | 94 | 1011.9 |
| 20260830144310 | 65 | 86 | 0.0 | 2.0 | 0.00 | 0.07 | 0.01 | 94 | 1011.5 |
| 20260830143005 | 65 | 122 | 0.0 | 2.0 | 0.00 | 0.07 | 0.01 | 95 | 1011.7 |
| 20260830142811 | 65 | 123 | 0.0 | 2.0 | 0.00 | 0.07 | 0.01 | 95 | 1011.7 |
| 20260830141313 | 64 | 111 | 0.0 | 0.0 | 0.00 | 0.08 | 0.01 | 95 | 1011.9 |
| 20260830141005 | 64 | 111 | 0.0 | 2.0 | 0.00 | 0.08 | 0.01 | 95 | 1012.0 |
| 20260830140012 | 64 | 121 | 0.0 | 3.0 | 0.00 | 0.08 | 0.01 | 95 | 1011.8 |
| 20260830135811 | 64 | 121 | 0.0 | 0.0 | 0.00 | 0.08 | 0.01 | 95 | 1011.7 |
| 20260830134311 | 64 | 79 | 0.0 | 0.0 | 0.01 | 0.08 | 0.01 | 95 | 1011.5 |
| 20260830134005 | 64 | 96 | 0.0 | 3.0 | 0.01 | 0.08 | 0.01 | 95 | 1011.4 |
| 20260830133005 | 64 | 122 | 1.0 | 6.0 | 0.01 | 0.08 | 0.01 | 95 | 1011.4 |
| 20260830132810 | 64 | 93 | 1.0 | 6.0 | 0.01 | 0.08 | 0.01 | 95 | 1011.4 |
| 20260830132006 | 64 | 84 | 0.0 | 2.0 | 0.01 | 0.08 | 0.01 | 95 | 1011.6 |
| 20260830131312 | 64 | 84 | 0.0 | 0.0 | 0.01 | 0.08 | 0.01 | 94 | 1011.9 |
| 20260830131005 | 64 | 84 | 0.0 | 1.0 | 0.01 | 0.09 | 0.01 | 94 | 1011.9 |
| 20260830125810 | 63 | 84 | 0.0 | 0.0 | 0.01 | 0.09 | 0.01 | 94 | 1011.9 |
| 20260830125005 | 63 | 92 | 0.0 | 5.0 | 0.01 | 0.09 | 0.01 | 94 | 1011.7 |
| 20260830124309 | 63 | 78 | 0.0 | 1.0 | 0.00 | 0.09 | 0.00 | 94 | 1011.4 |
| 20260830124012 | 63 | 78 | 0.0 | 3.0 | 0.00 | 0.09 | 0.00 | 94 | 1011.3 |
| 20260830123008 | 63 | 96 | 0.0 | 5.0 | 0.00 | 0.09 | 0.00 | 94 | 1011.2 |
| 20260830122810 | 63 | 96 | 1.0 | 2.0 | 0.00 | 0.09 | 0.00 | 94 | 1011.3 |
| 20260830122006 | 63 | 89 | 0.0 | 5.0 | 0.00 | 0.09 | 0.00 | 94 | 1011.4 |
| 20260830121310 | 63 | 89 | 1.0 | 0.0 | 0.00 | 0.09 | 0.00 | 94 | 1011.3 |
| 20260830121005 | 63 | 108 | 0.0 | 3.0 | 0.00 | 0.09 | 0.00 | 94 | 1011.3 |
| 20260830120005 | 63 | 72 | 0.0 | 2.0 | 0.00 | 0.09 | 0.00 | 94 | 1011.4 |